When you browse on this site, cookies collect data to enhance your experience and personalize the content and advertising you see.
Visit our Privacy Policy to learn more. By continuing to use the site, you agree to this use of cookies and data.
EN

Hourly Weather Goladkowo

Today, 20 September, Sunday

Time Temperature Precipitation Wind Pressure Humidity
00:00 +11°C° 0 mm 1 mps 758 mmHg 68%
01:00 +11°C° 0 mm 1 mps 758 mmHg 72%
02:00 +11°C° 0 mm 1 mps 758 mmHg 72%
03:00 +11°C° 0 mm 1 mps 757 mmHg 73%
04:00 +10°C° 0 mm 1 mps 757 mmHg 73%
05:00 +11°C° 0 mm 1 mps 758 mmHg 71%
06:00 +12°C° 0 mm 1 mps 758 mmHg 69%
07:00 +12°C° 0 mm 1 mps 758 mmHg 67%
08:00 +14°C° 0 mm 2 mps 758 mmHg 62%
09:00 +16°C° 0 mm 2 mps 758 mmHg 57%
10:00 +17°C° 0 mm 2 mps 758 mmHg 52%
11:00 +18°C° 0 mm 2 mps 757 mmHg 50%
12:00 +19°C° 0 mm 2 mps 757 mmHg 48%
13:00 +20°C° 0 mm 2 mps 757 mmHg 47%
14:00 +20°C° 0 mm 2 mps 756 mmHg 49%
15:00 +20°C° 0 mm 2 mps 756 mmHg 51%
16:00 +20°C° 0 mm 2 mps 756 mmHg 53%
17:00 +18°C° 0 mm 2 mps 756 mmHg 57%
18:00 +16°C° 0 mm 2 mps 756 mmHg 61%
19:00 +14°C° 0 mm 2 mps 756 mmHg 65%
20:00 +14°C° 0 mm 2 mps 756 mmHg 67%
21:00 +13°C° 0 mm 2 mps 756 mmHg 69%
22:00 +13°C° 0 mm 2 mps 756 mmHg 70%
23:00 +12°C° 0 mm 2 mps 756 mmHg 71%

Tomorrow, 21 September, Monday

Time Temperature Precipitation Wind Pressure Humidity
00:00 +12°C° 0 mm 2 mps 756 mmHg 71%
01:00 +10°C° 0 mm 2 mps 756 mmHg 71%
02:00 +10°C° 0 mm 2 mps 756 mmHg 73%
03:00 +9°C° 0 mm 2 mps 755 mmHg 74%
04:00 +9°C° 0 mm 2 mps 755 mmHg 76%
05:00 +10°C° 0 mm 2 mps 755 mmHg 74%
06:00 +12°C° 0 mm 2 mps 756 mmHg 73%
07:00 +12°C° 0 mm 2 mps 756 mmHg 71%
08:00 +15°C° 0 mm 2 mps 756 mmHg 65%
09:00 +17°C° 0 mm 2 mps 755 mmHg 58%
10:00 +19°C° 0 mm 3 mps 755 mmHg 52%
11:00 +21°C° 0 mm 3 mps 755 mmHg 48%
12:00 +23°C° 0 mm 2 mps 755 mmHg 45%
13:00 +24°C° 0 mm 2 mps 755 mmHg 42%
14:00 +24°C° 0 mm 2 mps 754 mmHg 43%
15:00 +24°C° 0 mm 2 mps 754 mmHg 45%
16:00 +24°C° 0 mm 1 mps 754 mmHg 47%
17:00 +22°C° 0 mm 1 mps 754 mmHg 51%
18:00 +20°C° 0 mm 1 mps 754 mmHg 56%
19:00 +18°C° 0 mm 1 mps 753 mmHg 60%
20:00 +16°C° 0 mm 1 mps 753 mmHg 62%
21:00 +16°C° 0 mm 1 mps 753 mmHg 63%
22:00 +15°C° 0 mm 1 mps 753 mmHg 65%
23:00 +15°C° 0 mm 1 mps 753 mmHg 66%

Day after tomorrow, 22 September, Tuesday

Time Temperature Precipitation Wind Pressure Humidity
00:00 +15°C° 0 mm 1 mps 753 mmHg 68%
01:00 +14°C° 0 mm 2 mps 753 mmHg 69%
02:00 +14°C° 0 mm 2 mps 753 mmHg 70%
03:00 +14°C° 0 mm 2 mps 753 mmHg 72%
04:00 +14°C° 0 mm 1 mps 752 mmHg 73%
05:00 +15°C° 0 mm 2 mps 753 mmHg 71%
06:00 +15°C° 0 mm 2 mps 753 mmHg 69%
07:00 +16°C° 0 mm 2 mps 753 mmHg 67%
08:00 +19°C° 0 mm 2 mps 753 mmHg 61%
09:00 +21°C° 0 mm 3 mps 753 mmHg 54%
10:00 +24°C° 0 mm 3 mps 752 mmHg 47%
11:00 +25°C° 0 mm 3 mps 752 mmHg 45%
12:00 +27°C° 0 mm 4 mps 752 mmHg 42%
13:00 +28°C° 0 mm 4 mps 751 mmHg 39%
14:00 +27°C° 0 mm 3 mps 751 mmHg 41%
15:00 +27°C° 0 mm 3 mps 750 mmHg 44%
16:00 +26°C° 0 mm 3 mps 750 mmHg 47%
17:00 +25°C° 0 mm 3 mps 750 mmHg 50%
18:00 +22°C° 0 mm 3 mps 750 mmHg 54%
19:00 +20°C° 0 mm 3 mps 750 mmHg 57%
20:00 +19°C° 0 mm 3 mps 750 mmHg 59%
21:00 +19°C° 0 mm 3 mps 749 mmHg 60%
22:00 +18°C° 0 mm 3 mps 749 mmHg 62%
23:00 +18°C° 0 mm 3 mps 749 mmHg 63%

23 September, Wednesday

Time Temperature Precipitation Wind Pressure Humidity
00:00 +17°C° 0 mm 3 mps 749 mmHg 65%
01:00 +16°C° 0 mm 3 mps 748 mmHg 66%
02:00 +16°C° 0 mm 3 mps 748 mmHg 67%
03:00 +16°C° 0 mm 3 mps 748 mmHg 68%
04:00 +14°C° 0 mm 3 mps 747 mmHg 69%
05:00 +16°C° 0 mm 3 mps 747 mmHg 67%
06:00 +17°C° 0 mm 3 mps 747 mmHg 66%
07:00 +17°C° 0 mm 3 mps 747 mmHg 65%
08:00 +19°C° 0 mm 3 mps 747 mmHg 59%
09:00 +21°C° 0 mm 3 mps 747 mmHg 53%
10:00 +25°C° 0 mm 3 mps 746 mmHg 48%
11:00 +26°C° 0 mm 3 mps 746 mmHg 44%
12:00 +27°C° 0 mm 3 mps 746 mmHg 41%
13:00 +29°C° 0 mm 3 mps 746 mmHg 38%
14:00 +28°C° 0 mm 3 mps 745 mmHg 40%
15:00 +28°C° 0 mm 3 mps 745 mmHg 42%
16:00 +27°C° 0 mm 2 mps 745 mmHg 45%
17:00 +26°C° 0 mm 2 mps 745 mmHg 49%
18:00 +24°C° 0 mm 2 mps 745 mmHg 53%
19:00 +21°C° 0 mm 2 mps 745 mmHg 57%
20:00 +20°C° 0 mm 2 mps 745 mmHg 60%
21:00 +20°C° 0 mm 1 mps 745 mmHg 63%
22:00 +20°C° 0 mm 1 mps 745 mmHg 66%
23:00 +20°C° 0 mm 1 mps 745 mmHg 68%

24 September, Thursday

Time Temperature Precipitation Wind Pressure Humidity
00:00 +19°C° 0 mm 1 mps 745 mmHg 69%
01:00 +18°C° 0 mm 2 mps 745 mmHg 71%
02:00 +17°C° 0.1 mm 2 mps 745 mmHg 73%
03:00 +17°C° 0.1 mm 2 mps 745 mmHg 75%
04:00 +17°C° 0.1 mm 2 mps 745 mmHg 77%
05:00 +17°C° 0.3 mm 2 mps 745 mmHg 77%
06:00 +18°C° 0.3 mm 2 mps 745 mmHg 77%
07:00 +18°C° 0.3 mm 2 mps 745 mmHg 78%
08:00 +20°C° 0.1 mm 3 mps 745 mmHg 73%
09:00 +21°C° 0.1 mm 3 mps 746 mmHg 68%
10:00 +24°C° 0.1 mm 3 mps 746 mmHg 64%
11:00 +25°C° 0 mm 3 mps 746 mmHg 60%
12:00 +26°C° 0 mm 3 mps 746 mmHg 56%
13:00 +27°C° 0 mm 3 mps 746 mmHg 53%
14:00 +26°C° 0 mm 2 mps 746 mmHg 53%
15:00 +26°C° 0 mm 2 mps 746 mmHg 54%
16:00 +26°C° 0 mm 1 mps 746 mmHg 54%
17:00 +24°C° 0.2 mm 1 mps 746 mmHg 60%
18:00 +23°C° 0.2 mm 1 mps 746 mmHg 65%
19:00 +21°C° 0.2 mm 1 mps 746 mmHg 71%
20:00 +20°C° 0.4 mm 1 mps 746 mmHg 74%
21:00 +20°C° 0.4 mm 1 mps 746 mmHg 78%
22:00 +19°C° 0.4 mm 1 mps 746 mmHg 81%
23:00 +19°C° 0.1 mm 1 mps 745 mmHg 82%

25 September, Friday

Time Temperature Precipitation Wind Pressure Humidity
00:00 +18°C° 0.1 mm 2 mps 745 mmHg 83%
01:00 +17°C° 0.1 mm 2 mps 745 mmHg 84%
02:00 +17°C° 0 mm 3 mps 744 mmHg 85%
03:00 +17°C° 0 mm 3 mps 744 mmHg 86%
04:00 +17°C° 0 mm 4 mps 743 mmHg 87%
05:00 +17°C° 0 mm 4 mps 742 mmHg 84%
06:00 +16°C° 0 mm 5 mps 742 mmHg 82%
07:00 +17°C° 0 mm 6 mps 741 mmHg 79%
08:00 +19°C° 0 mm 6 mps 741 mmHg 72%
09:00 +21°C° 0 mm 7 mps 740 mmHg 65%
10:00 +23°C° 0 mm 7 mps 740 mmHg 59%
11:00 +24°C° 0.1 mm 8 mps 740 mmHg 56%
12:00 +24°C° 0.1 mm 8 mps 739 mmHg 53%
13:00 +26°C° 0.1 mm 8 mps 739 mmHg 51%
14:00 +23°C° 0.1 mm 8 mps 739 mmHg 57%
15:00 +22°C° 0.1 mm 8 mps 739 mmHg 63%
16:00 +20°C° 0.1 mm 7 mps 739 mmHg 69%
17:00 +20°C° 0.1 mm 6 mps 739 mmHg 72%
18:00 +19°C° 0.1 mm 5 mps 739 mmHg 75%
19:00 +18°C° 0.1 mm 4 mps 739 mmHg 78%
20:00 +18°C° 0 mm 3 mps 739 mmHg 80%
21:00 +17°C° 0 mm 3 mps 739 mmHg 83%
22:00 +16°C° 0 mm 2 mps 739 mmHg 85%
23:00 +16°C° 0 mm 2 mps 738 mmHg 85%
Show more